Time,TemperatureF,DewpointF,PressureIn,WindDirection,WindDirectionDegrees,WindSpeedMPH,WindSpeedGustMPH,Humidity,HourlyPrecipIn,Conditions,Clouds,dailyrainin,SoftwareType,DateUTC
2013-04-07 00:00:00,43.2,41.0,29.77,North,0,0.0,0.0,92,0.01,,,0.00,WUHU216HW,2013-04-07 07:00:00,
2013-04-07 00:05:00,43.0,40.9,29.76,North,0,0.0,0.0,92,0.01,,,0.00,WUHU216HW,2013-04-07 07:05:00,
2013-04-07 00:10:00,43.0,40.9,29.75,North,0,0.0,0.0,92,0.01,,,0.00,WUHU216HW,2013-04-07 07:10:00,
2013-04-07 00:15:00,42.8,40.7,29.75,North,0,0.0,0.0,92,0.02,,,0.01,WUHU216HW,2013-04-07 07:15:00,
2013-04-07 00:20:00,42.8,40.7,29.75,North,0,0.0,0.0,92,0.02,,,0.01,WUHU216HW,2013-04-07 07:20:00,
2013-04-07 00:25:00,42.7,40.5,29.74,North,0,0.0,0.0,92,0.02,,,0.01,WUHU216HW,2013-04-07 07:25:00,
2013-04-07 00:30:00,42.7,40.5,29.73,North,0,0.0,0.0,92,0.02,,,0.01,WUHU216HW,2013-04-07 07:30:00,
2013-04-07 00:35:00,42.7,40.5,29.73,North,0,0.0,0.0,92,0.02,,,0.01,WUHU216HW,2013-04-07 07:35:00,
2013-04-07 00:40:00,42.5,40.3,29.72,North,0,0.0,0.0,92,0.02,,,0.01,WUHU216HW,2013-04-07 07:40:00,
2013-04-07 00:45:00,42.5,40.3,29.72,North,0,0.0,0.0,92,0.01,,,0.01,WUHU216HW,2013-04-07 07:45:00,
2013-04-07 00:50:00,42.5,40.6,29.70,North,0,0.0,0.0,93,0.01,,,0.01,WUHU216HW,2013-04-07 07:50:00,
2013-04-07 00:55:00,42.5,40.6,29.69,North,0,0.0,0.0,93,0.01,,,0.01,WUHU216HW,2013-04-07 07:55:00,
2013-04-07 01:00:00,42.3,40.4,29.69,North,0,0.0,0.0,93,0.01,,,0.01,WUHU216HW,2013-04-07 08:00:00,
2013-04-07 01:06:00,42.3,40.1,29.68,North,0,0.0,0.0,92,0.01,,,0.01,WUHU216HW,2013-04-07 08:06:00,
2013-04-07 01:11:00,42.5,40.6,29.67,North,0,0.0,0.0,93,0.00,,,0.01,WUHU216HW,2013-04-07 08:11:00,
2013-04-07 01:16:00,42.5,40.3,29.67,North,0,0.0,0.0,92,0.00,,,0.01,WUHU216HW,2013-04-07 08:16:00,
2013-04-07 01:21:00,42.5,40.3,29.67,North,0,0.0,0.0,92,0.00,,,0.01,WUHU216HW,2013-04-07 08:21:00,
2013-04-07 01:26:00,42.5,40.3,29.66,North,0,0.0,0.0,92,0.00,,,0.01,WUHU216HW,2013-04-07 08:26:00,
2013-04-07 01:31:00,42.5,40.3,29.65,North,0,0.0,0.0,92,0.00,,,0.01,WUHU216HW,2013-04-07 08:31:00,
2013-04-07 01:36:00,42.5,40.3,29.65,North,0,0.0,0.0,92,0.00,,,0.01,WUHU216HW,2013-04-07 08:36:00,
2013-04-07 01:41:00,42.7,40.5,29.65,North,0,0.0,0.0,92,0.00,,,0.01,WUHU216HW,2013-04-07 08:41:00,
2013-04-07 01:46:00,42.7,40.5,29.64,North,0,0.0,0.0,92,0.01,,,0.02,WUHU216HW,2013-04-07 08:46:00,
2013-04-07 01:53:00,42.5,40.3,29.64,North,0,0.0,0.0,92,0.02,,,0.03,WUHU216HW,2013-04-07 08:53:00,
2013-04-07 01:58:00,42.5,40.3,29.63,North,0,0.0,0.0,92,0.02,,,0.03,WUHU216HW,2013-04-07 08:58:00,
2013-04-07 02:04:00,42.5,40.3,29.62,North,0,0.0,0.0,92,0.03,,,0.04,WUHU216HW,2013-04-07 09:04:00,
2013-04-07 02:09:00,42.5,40.3,29.62,North,0,0.0,0.0,92,0.03,,,0.04,WUHU216HW,2013-04-07 09:09:00,
2013-04-07 02:14:00,42.3,40.1,29.62,North,0,0.0,0.0,92,0.04,,,0.05,WUHU216HW,2013-04-07 09:14:00,
2013-04-07 02:19:00,42.3,40.1,29.62,North,0,0.0,0.0,92,0.05,,,0.06,WUHU216HW,2013-04-07 09:19:00,
2013-04-07 02:24:00,42.3,40.1,29.61,North,0,0.0,0.0,92,0.06,,,0.07,WUHU216HW,2013-04-07 09:24:00,
2013-04-07 02:29:00,42.3,40.1,29.60,North,0,0.0,0.0,92,0.06,,,0.07,WUHU216HW,2013-04-07 09:29:00,
2013-04-07 02:34:00,42.3,40.1,29.60,North,0,0.0,0.0,92,0.07,,,0.08,WUHU216HW,2013-04-07 09:34:00,
2013-04-07 02:39:00,42.1,40.0,29.59,North,0,0.0,0.0,92,0.08,,,0.09,WUHU216HW,2013-04-07 09:39:00,
2013-04-07 02:46:00,42.1,40.0,29.59,North,0,0.0,0.0,92,0.08,,,0.10,WUHU216HW,2013-04-07 09:46:00,
2013-04-07 02:51:00,42.1,40.0,29.58,North,0,0.0,0.0,92,0.07,,,0.10,WUHU216HW,2013-04-07 09:51:00,
2013-04-07 02:56:00,42.1,40.0,29.57,North,0,0.0,0.0,92,0.08,,,0.11,WUHU216HW,2013-04-07 09:56:00,
2013-04-07 03:01:00,42.1,40.0,29.57,North,0,0.0,0.0,92,0.08,,,0.12,WUHU216HW,2013-04-07 10:01:00,
2013-04-07 03:06:00,42.1,40.0,29.56,North,0,0.0,0.0,92,0.09,,,0.13,WUHU216HW,2013-04-07 10:06:00,
2013-04-07 03:11:00,42.1,40.0,29.56,North,0,0.0,0.0,92,0.10,,,0.14,WUHU216HW,2013-04-07 10:11:00,
2013-04-07 03:16:00,42.1,40.2,29.55,North,0,0.0,0.0,93,0.09,,,0.15,WUHU216HW,2013-04-07 10:16:00,
2013-04-07 03:21:00,42.1,40.2,29.54,North,0,0.0,0.0,93,0.09,,,0.16,WUHU216HW,2013-04-07 10:21:00,
2013-04-07 03:27:00,42.1,40.2,29.54,North,0,0.0,0.0,93,0.09,,,0.16,WUHU216HW,2013-04-07 10:27:00,
2013-04-07 03:32:00,42.1,40.2,29.54,North,0,0.0,0.0,93,0.09,,,0.18,WUHU216HW,2013-04-07 10:32:00,
2013-04-07 03:37:00,41.9,40.1,29.53,North,0,0.0,0.0,93,0.08,,,0.18,WUHU216HW,2013-04-07 10:37:00,
2013-04-07 03:42:00,42.1,40.2,29.52,North,0,0.0,0.0,93,0.09,,,0.18,WUHU216HW,2013-04-07 10:42:00,
2013-04-07 03:47:00,42.1,40.2,29.52,North,0,0.0,0.0,93,0.09,,,0.20,WUHU216HW,2013-04-07 10:47:00,
2013-04-07 03:52:00,42.1,40.2,29.52,North,0,0.0,0.0,93,0.08,,,0.20,WUHU216HW,2013-04-07 10:52:00,
2013-04-07 03:57:00,42.1,40.2,29.51,North,0,0.0,0.0,93,0.08,,,0.20,WUHU216HW,2013-04-07 10:57:00,
2013-04-07 04:02:00,42.1,40.2,29.51,North,0,0.0,0.0,93,0.07,,,0.20,WUHU216HW,2013-04-07 11:02:00,
2013-04-07 04:07:00,42.1,40.2,29.50,North,0,0.0,0.0,93,0.07,,,0.20,WUHU216HW,2013-04-07 11:07:00,
2013-04-07 04:12:00,42.1,40.2,29.50,North,0,0.0,0.0,93,0.05,,,0.20,WUHU216HW,2013-04-07 11:12:00,
2013-04-07 04:18:00,42.1,40.2,29.50,North,0,0.0,0.0,93,0.04,,,0.20,WUHU216HW,2013-04-07 11:18:00,
2013-04-07 04:23:00,42.1,40.2,29.50,North,0,0.0,0.0,93,0.04,,,0.20,WUHU216HW,2013-04-07 11:23:00,
2013-04-07 04:28:00,42.1,40.2,29.49,North,0,0.0,0.0,93,0.04,,,0.21,WUHU216HW,2013-04-07 11:28:00,
2013-04-07 04:33:00,42.1,40.2,29.49,North,0,0.0,0.0,93,0.04,,,0.21,WUHU216HW,2013-04-07 11:33:00,
2013-04-07 04:38:00,42.1,40.2,29.49,North,0,0.0,0.0,93,0.04,,,0.23,WUHU216HW,2013-04-07 11:38:00,
2013-04-07 04:43:00,42.1,40.2,29.49,North,0,0.0,0.0,93,0.05,,,0.23,WUHU216HW,2013-04-07 11:43:00,
2013-04-07 04:48:00,41.9,40.1,29.48,North,0,0.0,0.0,93,0.05,,,0.25,WUHU216HW,2013-04-07 11:48:00,
2013-04-07 04:53:00,41.9,40.1,29.48,North,0,0.0,0.0,93,0.05,,,0.25,WUHU216HW,2013-04-07 11:53:00,
2013-04-07 04:58:00,41.9,40.1,29.48,North,0,0.0,0.0,93,0.05,,,0.25,WUHU216HW,2013-04-07 11:58:00,
2013-04-07 05:03:00,41.8,39.9,29.48,North,0,0.0,0.0,93,0.06,,,0.27,WUHU216HW,2013-04-07 12:03:00,
2013-04-07 05:08:00,41.8,39.9,29.48,North,0,0.0,0.0,93,0.07,,,0.27,WUHU216HW,2013-04-07 12:08:00,
2013-04-07 05:13:00,41.8,39.9,29.48,North,0,0.0,0.0,93,0.09,,,0.30,WUHU216HW,2013-04-07 12:13:00,
2013-04-07 05:18:00,41.6,39.7,29.47,North,0,0.0,0.0,93,0.10,,,0.31,WUHU216HW,2013-04-07 12:18:00,
2013-04-07 05:23:00,41.6,39.7,29.47,North,0,0.0,0.0,93,0.11,,,0.32,WUHU216HW,2013-04-07 12:23:00,
2013-04-07 05:28:00,41.6,39.7,29.47,North,0,0.0,0.0,93,0.11,,,0.33,WUHU216HW,2013-04-07 12:28:00,
2013-04-07 05:33:00,41.6,39.7,29.48,North,0,0.0,0.0,93,0.12,,,0.34,WUHU216HW,2013-04-07 12:33:00,
2013-04-07 05:38:00,41.4,39.5,29.47,North,0,0.0,0.0,93,0.14,,,0.37,WUHU216HW,2013-04-07 12:38:00,
2013-04-07 05:43:00,41.4,39.5,29.47,North,0,0.0,0.0,93,0.14,,,0.38,WUHU216HW,2013-04-07 12:43:00,
2013-04-07 05:48:00,41.4,39.5,29.47,North,0,0.0,0.0,93,0.14,,,0.39,WUHU216HW,2013-04-07 12:48:00,
2013-04-07 05:53:00,41.4,39.8,29.47,North,0,0.0,0.0,94,0.16,,,0.41,WUHU216HW,2013-04-07 12:53:00,
2013-04-07 05:58:00,41.4,39.8,29.47,North,0,0.0,0.0,94,0.16,,,0.42,WUHU216HW,2013-04-07 12:58:00,
2013-04-07 06:03:00,41.2,39.6,29.47,North,0,0.0,0.0,94,0.16,,,0.43,WUHU216HW,2013-04-07 13:03:00,
2013-04-07 06:08:00,41.2,39.6,29.47,North,0,0.0,0.0,94,0.15,,,0.44,WUHU216HW,2013-04-07 13:08:00,
2013-04-07 06:13:00,41.2,39.6,29.48,North,0,0.0,0.0,94,0.16,,,0.46,WUHU216HW,2013-04-07 13:13:00,
2013-04-07 06:18:00,41.0,39.4,29.48,North,0,0.0,0.0,94,0.17,,,0.48,WUHU216HW,2013-04-07 13:18:00,
2013-04-07 06:23:00,41.0,39.4,29.48,North,0,0.0,0.0,94,0.17,,,0.49,WUHU216HW,2013-04-07 13:23:00,
2013-04-07 06:28:00,41.0,39.4,29.49,North,0,0.0,0.0,94,0.16,,,0.51,WUHU216HW,2013-04-07 13:28:00,
2013-04-07 06:33:00,40.9,39.2,29.49,North,0,0.0,0.0,94,0.17,,,0.53,WUHU216HW,2013-04-07 13:33:00,
2013-04-07 06:39:00,40.9,39.5,29.49,North,0,0.0,0.0,95,0.18,,,0.55,WUHU216HW,2013-04-07 13:39:00,
2013-04-07 06:44:00,40.9,39.5,29.49,North,0,0.0,0.0,95,0.17,,,0.56,WUHU216HW,2013-04-07 13:44:00,
2013-04-07 06:49:00,40.9,39.5,29.49,North,0,0.0,0.0,95,0.17,,,0.57,WUHU216HW,2013-04-07 13:49:00,
2013-04-07 06:54:00,40.9,39.5,29.50,North,0,0.0,0.0,95,0.16,,,0.58,WUHU216HW,2013-04-07 13:54:00,
2013-04-07 06:59:00,40.9,39.5,29.50,North,0,0.0,0.0,95,0.17,,,0.59,WUHU216HW,2013-04-07 13:59:00,
2013-04-07 07:04:00,40.9,39.5,29.50,North,0,0.0,0.0,95,0.16,,,0.60,WUHU216HW,2013-04-07 14:04:00,
2013-04-07 07:09:00,40.7,39.3,29.51,North,0,0.0,0.0,95,0.15,,,0.61,WUHU216HW,2013-04-07 14:09:00,
2013-04-07 07:14:00,40.5,39.2,29.51,North,0,0.0,0.0,95,0.15,,,0.62,WUHU216HW,2013-04-07 14:14:00,
2013-04-07 07:19:00,39.8,37.9,29.51,North,0,0.0,0.0,93,0.15,,,0.63,WUHU216HW,2013-04-07 14:19:00,
2013-04-07 07:24:00,39.2,37.4,29.52,North,0,0.0,0.0,93,0.12,,,0.63,WUHU216HW,2013-04-07 14:24:00,
2013-04-07 07:29:00,39.1,37.2,29.53,North,0,0.0,0.0,93,0.12,,,0.64,WUHU216HW,2013-04-07 14:29:00,
2013-04-07 07:35:00,38.9,37.0,29.53,North,0,0.0,0.0,93,0.10,,,0.64,WUHU216HW,2013-04-07 14:35:00,
2013-04-07 07:40:00,39.1,37.2,29.53,North,0,0.0,0.0,93,0.09,,,0.64,WUHU216HW,2013-04-07 14:40:00,
2013-04-07 07:45:00,38.9,37.0,29.54,North,0,0.0,0.0,93,0.07,,,0.64,WUHU216HW,2013-04-07 14:45:00,
2013-04-07 07:50:00,39.1,37.4,29.54,North,0,0.0,0.0,94,0.07,,,0.64,WUHU216HW,2013-04-07 14:50:00,
2013-04-07 07:55:00,39.1,37.4,29.55,North,0,0.0,0.0,94,0.06,,,0.65,WUHU216HW,2013-04-07 14:55:00,
2013-04-07 08:00:00,39.2,37.6,29.56,North,0,0.0,0.0,94,0.05,,,0.65,WUHU216HW,2013-04-07 15:00:00,
2013-04-07 08:05:00,39.2,37.6,29.57,North,0,0.0,0.0,94,0.04,,,0.65,WUHU216HW,2013-04-07 15:05:00,
2013-04-07 08:10:00,39.2,37.6,29.58,North,0,0.0,0.0,94,0.03,,,0.65,WUHU216HW,2013-04-07 15:10:00,
2013-04-07 08:15:00,39.4,37.8,29.58,North,0,0.0,0.0,94,0.03,,,0.65,WUHU216HW,2013-04-07 15:15:00,
2013-04-07 08:20:00,39.4,37.8,29.59,North,0,0.0,0.0,94,0.02,,,0.65,WUHU216HW,2013-04-07 15:20:00,
2013-04-07 08:25:00,39.6,38.0,29.59,North,0,0.0,0.0,94,0.01,,,0.65,WUHU216HW,2013-04-07 15:25:00,
2013-04-07 08:30:00,39.6,38.0,29.60,North,0,0.0,0.0,94,0.01,,,0.65,WUHU216HW,2013-04-07 15:30:00,
2013-04-07 08:35:00,40.0,38.3,29.61,North,0,0.0,0.0,94,0.02,,,0.66,WUHU216HW,2013-04-07 15:35:00,
2013-04-07 08:40:00,40.3,38.7,29.61,North,0,0.0,0.0,94,0.02,,,0.66,WUHU216HW,2013-04-07 15:40:00,
2013-04-07 08:45:00,40.3,39.0,29.62,North,0,0.0,0.0,95,0.02,,,0.66,WUHU216HW,2013-04-07 15:45:00,
2013-04-07 08:50:00,40.5,39.2,29.62,North,0,0.0,0.0,95,0.01,,,0.66,WUHU216HW,2013-04-07 15:50:00,
2013-04-07 08:55:00,40.7,39.3,29.63,North,0,0.0,0.0,95,0.01,,,0.66,WUHU216HW,2013-04-07 15:55:00,
2013-04-07 09:00:00,40.5,39.2,29.63,North,0,0.0,0.0,95,0.01,,,0.66,WUHU216HW,2013-04-07 16:00:00,
2013-04-07 09:05:00,40.7,39.3,29.64,North,0,0.0,0.0,95,0.02,,,0.67,WUHU216HW,2013-04-07 16:05:00,
2013-04-07 09:10:00,40.7,39.3,29.64,North,0,0.0,0.0,95,0.02,,,0.67,WUHU216HW,2013-04-07 16:10:00,
2013-04-07 09:15:00,40.9,39.5,29.64,North,0,0.0,0.0,95,0.02,,,0.67,WUHU216HW,2013-04-07 16:15:00,
2013-04-07 09:20:00,40.9,39.5,29.65,North,0,0.0,0.0,95,0.02,,,0.67,WUHU216HW,2013-04-07 16:20:00,
2013-04-07 09:25:00,40.9,39.5,29.65,North,0,0.0,0.0,95,0.02,,,0.67,WUHU216HW,2013-04-07 16:25:00,
2013-04-07 09:31:00,41.0,39.7,29.65,North,0,0.0,0.0,95,0.02,,,0.67,WUHU216HW,2013-04-07 16:31:00,
2013-04-07 09:36:00,41.2,39.6,29.65,North,0,0.0,0.0,94,0.01,,,0.67,WUHU216HW,2013-04-07 16:36:00,
2013-04-07 09:41:00,41.4,39.8,29.66,North,0,0.0,0.0,94,0.01,,,0.67,WUHU216HW,2013-04-07 16:41:00,
2013-04-07 09:46:00,41.4,39.8,29.66,North,0,0.0,0.0,94,0.02,,,0.68,WUHU216HW,2013-04-07 16:46:00,
2013-04-07 09:51:00,41.4,39.8,29.66,North,0,0.0,0.0,94,0.02,,,0.68,WUHU216HW,2013-04-07 16:51:00,
2013-04-07 09:56:00,41.6,40.0,29.66,North,0,0.0,0.0,94,0.02,,,0.68,WUHU216HW,2013-04-07 16:56:00,
2013-04-07 10:01:00,41.4,39.8,29.67,North,0,0.0,0.0,94,0.02,,,0.69,WUHU216HW,2013-04-07 17:01:00,
2013-04-07 10:06:00,41.4,39.8,29.67,North,0,0.0,0.0,94,0.03,,,0.70,WUHU216HW,2013-04-07 17:06:00,
2013-04-07 10:11:00,41.6,40.0,29.67,North,0,0.0,0.0,94,0.04,,,0.71,WUHU216HW,2013-04-07 17:11:00,
2013-04-07 10:16:00,41.4,39.8,29.67,North,0,0.0,0.0,94,0.06,,,0.73,WUHU216HW,2013-04-07 17:16:00,
2013-04-07 10:21:00,41.4,39.8,29.67,North,0,0.0,0.0,94,0.07,,,0.74,WUHU216HW,2013-04-07 17:21:00,
2013-04-07 10:26:00,41.4,39.8,29.68,North,0,0.0,0.0,94,0.08,,,0.75,WUHU216HW,2013-04-07 17:26:00,
2013-04-07 10:31:00,41.6,40.0,29.68,North,0,0.0,0.0,94,0.09,,,0.75,WUHU216HW,2013-04-07 17:31:00,
2013-04-07 10:37:00,41.6,40.0,29.69,North,0,0.0,0.0,94,0.10,,,0.76,WUHU216HW,2013-04-07 17:37:00,
2013-04-07 10:42:00,41.4,39.5,29.69,North,0,0.0,0.0,93,0.10,,,0.77,WUHU216HW,2013-04-07 17:42:00,
2013-04-07 10:47:00,41.4,39.5,29.69,North,0,0.0,0.0,93,0.10,,,0.78,WUHU216HW,2013-04-07 17:47:00,
2013-04-07 10:52:00,41.4,39.5,29.69,North,0,0.0,0.0,93,0.11,,,0.79,WUHU216HW,2013-04-07 17:52:00,
2013-04-07 10:58:00,41.2,39.3,29.70,North,0,0.0,0.0,93,0.11,,,0.81,WUHU216HW,2013-04-07 17:58:00,
2013-04-07 11:03:00,40.9,39.0,29.70,North,0,0.0,0.0,93,0.12,,,0.81,WUHU216HW,2013-04-07 18:03:00,
2013-04-07 11:08:00,40.7,38.5,29.70,North,0,0.0,0.0,92,0.10,,,0.83,WUHU216HW,2013-04-07 18:08:00,
2013-04-07 11:13:00,40.7,38.8,29.70,North,0,0.0,0.0,93,0.10,,,0.83,WUHU216HW,2013-04-07 18:13:00,
2013-04-07 11:18:00,40.7,38.8,29.70,North,0,0.0,0.0,93,0.09,,,0.83,WUHU216HW,2013-04-07 18:18:00,
2013-04-07 11:23:00,40.9,39.0,29.71,North,0,0.0,0.0,93,0.10,,,0.84,WUHU216HW,2013-04-07 18:23:00,
2013-04-07 11:28:00,40.9,39.0,29.71,North,0,0.0,0.0,93,0.09,,,0.85,WUHU216HW,2013-04-07 18:28:00,
2013-04-07 11:33:00,40.9,39.0,29.71,North,0,0.0,0.0,93,0.09,,,0.85,WUHU216HW,2013-04-07 18:33:00,
2013-04-07 11:39:00,40.9,38.7,29.71,North,0,0.0,0.0,92,0.09,,,0.86,WUHU216HW,2013-04-07 18:39:00,
2013-04-07 11:44:00,41.0,39.2,29.71,North,0,0.0,0.0,93,0.09,,,0.88,WUHU216HW,2013-04-07 18:44:00,
2013-04-07 11:49:00,41.2,39.1,29.71,North,0,0.0,0.0,92,0.09,,,0.88,WUHU216HW,2013-04-07 18:49:00,
2013-04-07 11:54:00,41.4,39.2,29.71,North,0,0.0,0.0,92,0.09,,,0.90,WUHU216HW,2013-04-07 18:54:00,
2013-04-07 11:59:00,41.4,39.2,29.71,North,0,0.0,0.0,92,0.10,,,0.90,WUHU216HW,2013-04-07 18:59:00,
2013-04-07 12:04:00,41.4,39.2,29.71,North,0,0.0,0.0,92,0.09,,,0.92,WUHU216HW,2013-04-07 19:04:00,
2013-04-07 12:09:00,41.8,39.6,29.71,North,0,0.0,0.0,92,0.09,,,0.93,WUHU216HW,2013-04-07 19:09:00,
2013-04-07 12:14:00,42.1,40.0,29.71,North,0,0.0,0.0,92,0.09,,,0.93,WUHU216HW,2013-04-07 19:14:00,
2013-04-07 12:19:00,42.3,40.1,29.71,North,0,0.0,0.0,92,0.09,,,0.94,WUHU216HW,2013-04-07 19:19:00,
2013-04-07 12:24:00,42.7,40.5,29.72,North,0,0.0,0.0,92,0.08,,,0.94,WUHU216HW,2013-04-07 19:24:00,
2013-04-07 12:29:00,43.0,40.9,29.72,North,0,0.0,0.0,92,0.08,,,0.94,WUHU216HW,2013-04-07 19:29:00,
2013-04-07 12:34:00,43.4,41.2,29.72,North,0,0.0,0.0,92,0.07,,,0.94,WUHU216HW,2013-04-07 19:34:00,
2013-04-07 12:40:00,43.6,41.1,29.72,North,0,0.0,0.0,91,0.07,,,0.94,WUHU216HW,2013-04-07 19:40:00,
2013-04-07 12:45:00,43.2,40.5,29.72,North,0,0.0,0.0,90,0.06,,,0.95,WUHU216HW,2013-04-07 19:45:00,
2013-04-07 12:50:00,42.8,40.1,29.72,North,0,0.0,0.0,90,0.05,,,0.95,WUHU216HW,2013-04-07 19:50:00,
2013-04-07 12:55:00,43.0,40.3,29.72,North,0,0.0,0.0,90,0.05,,,0.95,WUHU216HW,2013-04-07 19:55:00,
2013-04-07 13:00:00,43.2,40.5,29.72,North,0,0.0,0.0,90,0.03,,,0.95,WUHU216HW,2013-04-07 20:00:00,
2013-04-07 13:05:00,43.2,40.5,29.72,North,0,0.0,0.0,90,0.03,,,0.95,WUHU216HW,2013-04-07 20:05:00,
2013-04-07 13:10:00,43.2,40.5,29.73,North,0,0.0,0.0,90,0.02,,,0.95,WUHU216HW,2013-04-07 20:10:00,
2013-04-07 13:15:00,43.0,40.3,29.73,North,0,0.0,0.0,90,0.02,,,0.95,WUHU216HW,2013-04-07 20:15:00,
2013-04-07 13:20:00,43.2,40.5,29.73,North,0,0.0,0.0,90,0.01,,,0.95,WUHU216HW,2013-04-07 20:20:00,
2013-04-07 13:25:00,43.0,40.3,29.73,North,0,0.0,0.0,90,0.01,,,0.95,WUHU216HW,2013-04-07 20:25:00,
2013-04-07 13:30:00,43.2,40.5,29.73,North,0,0.0,0.0,90,0.02,,,0.95,WUHU216HW,2013-04-07 20:30:00,
2013-04-07 13:35:00,43.2,40.2,29.73,North,0,0.0,0.0,89,0.02,,,0.95,WUHU216HW,2013-04-07 20:35:00,
2013-04-07 13:40:00,43.4,40.7,29.73,North,0,0.0,0.0,90,0.01,,,0.95,WUHU216HW,2013-04-07 20:40:00,
2013-04-07 13:45:00,43.7,40.8,29.74,North,0,0.0,0.0,89,0.02,,,0.97,WUHU216HW,2013-04-07 20:45:00,
2013-04-07 13:50:00,43.9,41.2,29.74,North,0,0.0,0.0,90,0.02,,,0.97,WUHU216HW,2013-04-07 20:50:00,
2013-04-07 13:55:00,44.1,41.1,29.74,North,0,0.0,0.0,89,0.02,,,0.97,WUHU216HW,2013-04-07 20:55:00,
2013-04-07 14:00:00,44.1,41.1,29.74,North,0,0.0,0.0,89,0.02,,,0.97,WUHU216HW,2013-04-07 21:00:00,
2013-04-07 14:05:00,44.3,41.3,29.74,North,0,0.0,0.0,89,0.02,,,0.97,WUHU216HW,2013-04-07 21:05:00,
2013-04-07 14:11:00,44.3,41.3,29.74,North,0,0.0,0.0,89,0.02,,,0.97,WUHU216HW,2013-04-07 21:11:00,
2013-04-07 14:16:00,44.3,41.3,29.74,North,0,0.0,0.0,89,0.02,,,0.97,WUHU216HW,2013-04-07 21:16:00,
2013-04-07 14:21:00,44.6,41.9,29.74,North,0,0.0,0.0,90,0.03,,,0.97,WUHU216HW,2013-04-07 21:21:00,
2013-04-07 14:26:00,44.8,42.4,29.75,North,0,0.0,0.0,91,0.02,,,0.97,WUHU216HW,2013-04-07 21:26:00,
2013-04-07 14:31:00,44.6,41.9,29.75,North,0,0.0,0.0,90,0.02,,,0.97,WUHU216HW,2013-04-07 21:31:00,
2013-04-07 14:36:00,44.3,41.3,29.75,North,0,0.0,0.0,89,0.03,,,0.99,WUHU216HW,2013-04-07 21:36:00,
2013-04-07 14:41:00,44.1,41.1,29.75,North,0,0.0,0.0,89,0.03,,,1.00,WUHU216HW,2013-04-07 21:41:00,
2013-04-07 14:46:00,43.9,41.0,29.75,North,0,0.0,0.0,89,0.06,,,1.03,WUHU216HW,2013-04-07 21:46:00,
2013-04-07 14:51:00,43.9,41.2,29.75,North,0,0.0,0.0,90,0.09,,,1.06,WUHU216HW,2013-04-07 21:51:00,
2013-04-07 14:57:00,43.9,41.2,29.75,North,0,0.0,0.0,90,0.10,,,1.07,WUHU216HW,2013-04-07 21:57:00,
2013-04-07 15:02:00,43.9,41.2,29.75,North,0,0.0,0.0,90,0.12,,,1.09,WUHU216HW,2013-04-07 22:02:00,
2013-04-07 15:07:00,44.3,41.6,29.75,North,0,0.0,0.0,90,0.13,,,1.10,WUHU216HW,2013-04-07 22:07:00,
2013-04-07 15:12:00,44.5,41.8,29.75,North,0,0.0,0.0,90,0.15,,,1.12,WUHU216HW,2013-04-07 22:12:00,
2013-04-07 15:17:00,44.5,41.8,29.76,North,0,0.0,0.0,90,0.15,,,1.13,WUHU216HW,2013-04-07 22:17:00,
2013-04-07 15:22:00,44.6,42.2,29.76,North,0,0.0,0.0,91,0.17,,,1.15,WUHU216HW,2013-04-07 22:22:00,
2013-04-07 15:27:00,44.8,42.4,29.76,North,0,0.0,0.0,91,0.18,,,1.16,WUHU216HW,2013-04-07 22:27:00,
2013-04-07 15:32:00,44.8,42.4,29.76,North,0,0.0,0.0,91,0.17,,,1.16,WUHU216HW,2013-04-07 22:32:00,
2013-04-07 15:37:00,44.6,42.2,29.76,North,0,0.0,0.0,91,0.17,,,1.17,WUHU216HW,2013-04-07 22:37:00,
2013-04-07 15:43:00,44.6,42.2,29.76,North,0,0.0,0.0,91,0.16,,,1.18,WUHU216HW,2013-04-07 22:43:00,
2013-04-07 15:48:00,44.6,42.2,29.77,North,0,0.0,0.0,91,0.14,,,1.18,WUHU216HW,2013-04-07 22:48:00,
2013-04-07 15:53:00,45.0,42.6,29.77,North,0,0.0,0.0,91,0.12,,,1.19,WUHU216HW,2013-04-07 22:53:00,
2013-04-07 15:58:00,44.8,42.4,29.77,North,0,0.0,0.0,91,0.11,,,1.19,WUHU216HW,2013-04-07 22:58:00,
2013-04-07 16:03:00,44.6,42.2,29.77,North,0,0.0,0.0,91,0.09,,,1.19,WUHU216HW,2013-04-07 23:03:00,
2013-04-07 16:08:00,44.6,42.2,29.77,North,0,0.0,0.0,91,0.07,,,1.19,WUHU216HW,2013-04-07 23:08:00,
2013-04-07 16:13:00,44.6,42.2,29.77,North,0,0.0,0.0,91,0.07,,,1.20,WUHU216HW,2013-04-07 23:13:00,
2013-04-07 16:18:00,44.5,41.8,29.77,North,0,0.0,0.0,90,0.06,,,1.20,WUHU216HW,2013-04-07 23:18:00,
2013-04-07 16:23:00,44.1,41.4,29.77,North,0,0.0,0.0,90,0.06,,,1.21,WUHU216HW,2013-04-07 23:23:00,
2013-04-07 16:28:00,43.7,41.0,29.77,North,0,0.0,0.0,90,0.06,,,1.22,WUHU216HW,2013-04-07 23:28:00,
2013-04-07 16:33:00,43.6,40.9,29.77,North,0,0.0,0.0,90,0.06,,,1.23,WUHU216HW,2013-04-07 23:33:00,
2013-04-07 16:38:00,43.6,40.9,29.77,North,0,0.0,0.0,90,0.07,,,1.24,WUHU216HW,2013-04-07 23:38:00,
2013-04-07 16:43:00,43.6,40.9,29.77,North,0,0.0,0.0,90,0.07,,,1.25,WUHU216HW,2013-04-07 23:43:00,
2013-04-07 16:48:00,43.6,40.9,29.78,North,0,0.0,0.0,90,0.08,,,1.27,WUHU216HW,2013-04-07 23:48:00,
2013-04-07 16:53:00,43.6,40.9,29.78,North,0,0.0,0.0,90,0.09,,,1.28,WUHU216HW,2013-04-07 23:53:00,
2013-04-07 16:58:00,43.6,40.9,29.78,North,0,0.0,0.0,90,0.11,,,1.30,WUHU216HW,2013-04-07 23:58:00,
2013-04-07 17:03:00,43.6,40.9,29.78,North,0,0.0,0.0,90,0.12,,,1.31,WUHU216HW,2013-04-08 00:03:00,
2013-04-07 17:08:00,43.6,40.9,29.78,North,0,0.0,0.0,90,0.12,,,1.32,WUHU216HW,2013-04-08 00:08:00,
2013-04-07 17:13:00,43.6,40.9,29.78,North,0,0.0,0.0,90,0.14,,,1.34,WUHU216HW,2013-04-08 00:13:00,
2013-04-07 17:18:00,43.6,41.1,29.78,North,0,0.0,0.0,91,0.14,,,1.35,WUHU216HW,2013-04-08 00:18:00,
2013-04-07 17:23:00,43.6,41.1,29.78,North,0,0.0,0.0,91,0.14,,,1.35,WUHU216HW,2013-04-08 00:23:00,
2013-04-07 17:28:00,43.7,41.0,29.78,North,0,0.0,0.0,90,0.13,,,1.36,WUHU216HW,2013-04-08 00:28:00,
2013-04-07 17:33:00,43.7,41.0,29.78,North,0,0.0,0.0,90,0.13,,,1.37,WUHU216HW,2013-04-08 00:33:00,
2013-04-07 17:38:00,43.6,41.1,29.78,North,0,0.0,0.0,91,0.12,,,1.37,WUHU216HW,2013-04-08 00:38:00,
2013-04-07 17:43:00,43.6,41.1,29.78,North,0,0.0,0.0,91,0.12,,,1.37,WUHU216HW,2013-04-08 00:43:00,
2013-04-07 17:48:00,43.6,41.1,29.78,North,0,0.0,0.0,91,0.10,,,1.38,WUHU216HW,2013-04-08 00:48:00,
2013-04-07 17:53:00,43.6,41.1,29.78,North,0,0.0,0.0,91,0.09,,,1.38,WUHU216HW,2013-04-08 00:53:00,
2013-04-07 17:58:00,43.4,41.0,29.78,North,0,0.0,0.0,91,0.08,,,1.38,WUHU216HW,2013-04-08 00:58:00,
2013-04-07 18:03:00,43.2,40.8,29.78,North,0,0.0,0.0,91,0.08,,,1.39,WUHU216HW,2013-04-08 01:03:00,
2013-04-07 18:08:00,43.2,40.8,29.78,North,0,0.0,0.0,91,0.06,,,1.39,WUHU216HW,2013-04-08 01:08:00,
2013-04-07 18:13:00,43.2,40.8,29.79,North,0,0.0,0.0,91,0.06,,,1.40,WUHU216HW,2013-04-08 01:13:00,
2013-04-07 18:18:00,43.0,40.6,29.78,North,0,0.0,0.0,91,0.05,,,1.40,WUHU216HW,2013-04-08 01:18:00,
2013-04-07 18:23:00,43.0,40.6,29.79,North,0,0.0,0.0,91,0.05,,,1.41,WUHU216HW,2013-04-08 01:23:00,
2013-04-07 18:29:00,42.8,40.4,29.79,North,0,0.0,0.0,91,0.04,,,1.41,WUHU216HW,2013-04-08 01:29:00,
2013-04-07 18:34:00,42.7,40.2,29.79,North,0,0.0,0.0,91,0.04,,,1.41,WUHU216HW,2013-04-08 01:34:00,
2013-04-07 18:39:00,42.5,40.1,29.79,North,0,0.0,0.0,91,0.04,,,1.41,WUHU216HW,2013-04-08 01:39:00,
2013-04-07 18:44:00,42.5,40.1,29.79,North,0,0.0,0.0,91,0.04,,,1.41,WUHU216HW,2013-04-08 01:44:00,
2013-04-07 18:49:00,42.3,39.9,29.79,North,0,0.0,0.0,91,0.03,,,1.41,WUHU216HW,2013-04-08 01:49:00,
2013-04-07 18:54:00,42.1,39.7,29.79,North,0,0.0,0.0,91,0.03,,,1.41,WUHU216HW,2013-04-08 01:54:00,
2013-04-07 18:59:00,42.1,40.0,29.80,North,0,0.0,0.0,92,0.02,,,1.41,WUHU216HW,2013-04-08 01:59:00,
2013-04-07 19:05:00,42.1,40.0,29.80,North,0,0.0,0.0,92,0.02,,,1.41,WUHU216HW,2013-04-08 02:05:00,
2013-04-07 19:10:00,42.3,40.1,29.80,North,0,0.0,0.0,92,0.02,,,1.41,WUHU216HW,2013-04-08 02:10:00,
2013-04-07 19:14:00,42.1,40.0,29.80,North,0,0.0,0.0,92,0.01,,,1.41,WUHU216HW,2013-04-08 02:14:00,
2013-04-07 19:20:00,42.3,40.1,29.80,North,0,0.0,0.0,92,0.01,,,1.41,WUHU216HW,2013-04-08 02:20:00,
2013-04-07 19:25:00,42.1,40.0,29.80,North,0,0.0,0.0,92,0.00,,,1.41,WUHU216HW,2013-04-08 02:25:00,
2013-04-07 19:30:00,42.1,40.0,29.80,North,0,0.0,0.0,92,0.00,,,1.41,WUHU216HW,2013-04-08 02:30:00,
2013-04-07 19:35:00,41.9,39.8,29.80,North,0,0.0,0.0,92,0.00,,,1.41,WUHU216HW,2013-04-08 02:35:00,
2013-04-07 19:40:00,41.9,39.8,29.80,North,0,0.0,0.0,92,0.00,,,1.41,WUHU216HW,2013-04-08 02:40:00,
2013-04-07 19:45:00,41.8,39.6,29.80,North,0,0.0,0.0,92,0.00,,,1.41,WUHU216HW,2013-04-08 02:45:00,
2013-04-07 19:50:00,41.6,39.4,29.80,North,0,0.0,0.0,92,0.00,,,1.41,WUHU216HW,2013-04-08 02:50:00,
2013-04-07 19:55:00,41.4,39.2,29.81,North,0,0.0,0.0,92,0.00,,,1.41,WUHU216HW,2013-04-08 02:55:00,
2013-04-07 20:00:00,41.2,39.1,29.81,North,0,0.0,0.0,92,0.00,,,1.41,WUHU216HW,2013-04-08 03:00:00,
2013-04-07 20:05:00,41.0,38.9,29.81,North,0,0.0,0.0,92,0.00,,,1.41,WUHU216HW,2013-04-08 03:05:00,
2013-04-07 20:10:00,41.0,39.2,29.81,North,0,0.0,0.0,93,0.00,,,1.41,WUHU216HW,2013-04-08 03:10:00,
2013-04-07 20:15:00,40.9,39.0,29.82,North,0,0.0,0.0,93,0.00,,,1.41,WUHU216HW,2013-04-08 03:15:00,
2013-04-07 20:20:00,40.9,39.0,29.82,North,0,0.0,0.0,93,0.00,,,1.41,WUHU216HW,2013-04-08 03:20:00,
2013-04-07 20:25:00,40.9,39.0,29.82,North,0,0.0,0.0,93,0.00,,,1.41,WUHU216HW,2013-04-08 03:25:00,
2013-04-07 20:30:00,40.7,38.8,29.82,North,0,0.0,0.0,93,0.00,,,1.41,WUHU216HW,2013-04-08 03:30:00,
2013-04-07 20:36:00,40.7,38.8,29.82,North,0,0.0,0.0,93,0.00,,,1.41,WUHU216HW,2013-04-08 03:36:00,
2013-04-07 20:41:00,40.7,38.8,29.82,North,0,0.0,0.0,93,0.00,,,1.41,WUHU216HW,2013-04-08 03:41:00,
2013-04-07 20:46:00,40.7,38.8,29.82,North,0,0.0,0.0,93,0.00,,,1.41,WUHU216HW,2013-04-08 03:46:00,
2013-04-07 20:52:00,40.3,38.4,29.83,North,0,0.0,0.0,93,0.00,,,1.41,WUHU216HW,2013-04-08 03:52:00,
2013-04-07 20:57:00,40.0,38.1,29.83,North,0,0.0,0.0,93,0.00,,,1.41,WUHU216HW,2013-04-08 03:57:00,
2013-04-07 21:00:00,40.0,38.1,29.83,North,0,0.0,0.0,93,0.00,,,1.41,WUHU216HW,2013-04-08 04:00:00,
2013-04-07 21:05:00,39.6,37.7,29.83,North,0,0.0,0.0,93,0.00,,,1.41,WUHU216HW,2013-04-08 04:05:00,
2013-04-07 21:10:00,39.4,37.5,29.83,North,0,0.0,0.0,93,0.00,,,1.41,WUHU216HW,2013-04-08 04:10:00,
2013-04-07 21:15:00,39.4,37.5,29.84,North,0,0.0,0.0,93,0.00,,,1.41,WUHU216HW,2013-04-08 04:15:00,
2013-04-07 21:20:00,39.2,37.4,29.84,North,0,0.0,0.0,93,0.00,,,1.41,WUHU216HW,2013-04-08 04:20:00,
2013-04-07 21:25:00,39.2,37.4,29.84,North,0,0.0,0.0,93,0.00,,,1.41,WUHU216HW,2013-04-08 04:25:00,
2013-04-07 21:30:00,39.2,37.4,29.85,North,0,0.0,0.0,93,0.00,,,1.41,WUHU216HW,2013-04-08 04:30:00,
2013-04-07 21:35:00,39.4,37.5,29.85,North,0,0.0,0.0,93,0.00,,,1.41,WUHU216HW,2013-04-08 04:35:00,
2013-04-07 21:40:00,39.4,37.5,29.85,North,0,0.0,0.0,93,0.00,,,1.41,WUHU216HW,2013-04-08 04:40:00,
2013-04-07 21:45:00,39.6,37.7,29.85,North,0,0.0,0.0,93,0.00,,,1.41,WUHU216HW,2013-04-08 04:45:00,
2013-04-07 21:50:00,39.8,37.9,29.85,North,0,0.0,0.0,93,0.00,,,1.41,WUHU216HW,2013-04-08 04:50:00,
2013-04-07 21:55:00,39.8,37.9,29.85,North,0,0.0,0.0,93,0.00,,,1.41,WUHU216HW,2013-04-08 04:55:00,
2013-04-07 22:00:00,40.0,38.1,29.85,North,0,0.0,0.0,93,0.00,,,1.41,WUHU216HW,2013-04-08 05:00:00,
2013-04-07 22:05:00,40.0,38.1,29.85,North,0,0.0,0.0,93,0.00,,,1.41,WUHU216HW,2013-04-08 05:05:00,
2013-04-07 22:10:00,40.0,38.1,29.85,North,0,0.0,0.0,93,0.00,,,1.41,WUHU216HW,2013-04-08 05:10:00,
2013-04-07 22:15:00,40.0,38.1,29.85,North,0,0.0,0.0,93,0.00,,,1.41,WUHU216HW,2013-04-08 05:15:00,
2013-04-07 22:21:00,40.0,38.1,29.85,North,0,0.0,0.0,93,0.00,,,1.41,WUHU216HW,2013-04-08 05:21:00,
2013-04-07 22:27:00,40.1,38.3,29.85,North,0,0.0,0.0,93,0.00,,,1.41,WUHU216HW,2013-04-08 05:27:00,
2013-04-07 22:32:00,40.1,38.3,29.85,North,0,0.0,0.0,93,0.00,,,1.41,WUHU216HW,2013-04-08 05:32:00,
2013-04-07 22:37:00,40.1,38.3,29.85,North,0,0.0,0.0,93,0.00,,,1.41,WUHU216HW,2013-04-08 05:37:00,
2013-04-07 22:42:00,40.1,38.3,29.85,North,0,0.0,0.0,93,0.00,,,1.41,WUHU216HW,2013-04-08 05:42:00,
2013-04-07 22:47:00,40.1,38.3,29.86,North,0,0.0,0.0,93,0.00,,,1.41,WUHU216HW,2013-04-08 05:47:00,
2013-04-07 22:52:00,40.0,38.1,29.86,North,0,0.0,0.0,93,0.00,,,1.41,WUHU216HW,2013-04-08 05:52:00,
2013-04-07 22:57:00,40.1,38.3,29.86,North,0,0.0,0.0,93,0.00,,,1.41,WUHU216HW,2013-04-08 05:57:00,
2013-04-07 23:02:00,40.1,38.3,29.86,North,0,0.0,0.0,93,0.00,,,1.41,WUHU216HW,2013-04-08 06:02:00,
2013-04-07 23:07:00,40.1,38.3,29.86,North,0,0.0,0.0,93,0.00,,,1.41,WUHU216HW,2013-04-08 06:07:00,
2013-04-07 23:12:00,40.1,38.3,29.86,North,0,0.0,0.0,93,0.00,,,1.41,WUHU216HW,2013-04-08 06:12:00,
2013-04-07 23:17:00,40.1,38.3,29.87,North,0,0.0,0.0,93,0.00,,,1.41,WUHU216HW,2013-04-08 06:17:00,
2013-04-07 23:22:00,40.1,38.3,29.87,North,0,0.0,0.0,93,0.00,,,1.41,WUHU216HW,2013-04-08 06:22:00,
2013-04-07 23:27:00,40.3,38.4,29.87,North,0,0.0,0.0,93,0.00,,,1.41,WUHU216HW,2013-04-08 06:27:00,
2013-04-07 23:32:00,40.3,38.4,29.87,North,0,0.0,0.0,93,0.00,,,1.41,WUHU216HW,2013-04-08 06:32:00,
2013-04-07 23:37:00,40.5,38.6,29.87,North,0,0.0,0.0,93,0.00,,,1.41,WUHU216HW,2013-04-08 06:37:00,
2013-04-07 23:42:00,40.5,38.6,29.87,North,0,0.0,0.0,93,0.00,,,1.41,WUHU216HW,2013-04-08 06:42:00,
2013-04-07 23:47:00,40.5,38.6,29.87,North,0,0.0,0.0,93,0.00,,,1.41,WUHU216HW,2013-04-08 06:47:00,
2013-04-07 23:52:00,40.7,38.8,29.88,North,0,0.0,0.0,93,0.01,,,1.42,WUHU216HW,2013-04-08 06:52:00,
2013-04-07 23:57:00,40.7,38.8,29.88,North,0,0.0,0.0,93,0.01,,,1.42,WUHU216HW,2013-04-08 06:57:00,